Location: Zagreb
(45.8000°N, 16.0000°E)
Time: 20:40:01
(UTC+01:00)

CUTE-I - Pass Details

Date: 30 October 2020
Orbit: 811 x 824 km, 98.7° (Epoch: 01 December)

Event Time Altitude Azimuth Distance (km) Brightness Sun altitude
Rises 05:12:50 0° 27° (NNE) 3,355 ? -14.6°
Reaches altitude 10° 05:15:46 10° 43° (NE) 2,420 ? -14.1°
Maximum altitude 05:19:46 21° 92° (E) 1,761 ? -13.4°
Drops below altitude 10° 05:23:46 10° 140° (SE) 2,413 ? -12.7°
Sets 05:26:40 0° 156° (SSE) 3,342 ? -12.2°
